Nantucket, MA

8:46 AM EST on February 07, 2016 (GMT -0500)
Nantucket Memorial

Weather History for KACK - July, 2013

Change the Weather History Date:

Saturday, July 13, 2013

  Actual Average Record
Temperature  
Mean Temperature 70 °F -  
Max Temperature 75 °F 74 °F 87 °F (1952)
Min Temperature 64 °F 61 °F 53 °F (1973)
Cooling Degree Days 4    
Growing Degree Days 20 (Base 50)    
Moisture  
Dew Point 67 °F    
Average Humidity 96    
Maximum Humidity 100    
Minimum Humidity 83    
Precipitation  
Precipitation 0.02 in - - ()
Sea Level Pressure  
Sea Level Pressure 30.27 in    
Wind  
Wind Speed 7 mph (ESE)    
Max Wind Speed 12 mph    
Max Gust Speed -    
Visibility 3 miles    
Events Fog , Rain    
Averages and records for this station are not official NWS values.
T = Trace of Precipitation, MM = Missing Value Source: NWS Daily Summary

Daily Weather History Graph

Daily Weather History Graph

Search for Another Location

Airport or City:

Trip Planner

Search our weather history database for the weather conditions in past years. The results will help you decide how hot, cold, wet, or windy it might be!

Date:

Astronomy

Jul. 13, 2013 Rise Set
Actual Time 5:18 AM EDT 8:12 PM EDT
Civil Twilight 4:45 AM EDT 8:45 PM EDT
Nautical Twilight 4:04 AM EDT 9:27 PM EDT
Astronomical Twilight 3:16 AM EDT 10:15 PM EDT
Moon 10:35 AM EDT (7/13) 10:47 PM EDT (7/13)
Length of Visible Light 15h 59m
Length of Day
14h 53m
Waxing Crescent, 25% of the Moon is Illuminated
Jul 13
Waxing Crescent
Jul 15
First Quarter
Jul 22
Full
Jul 29
Last Quarter
Aug 6
New

Hourly Weather History & Observations

Time (EDT) Temp. Dew Point Humidity Pressure Visibility Wind Dir Wind Speed Gust Speed Precip Events Conditions
12:30 AM 64.4 °F 64.4 °F 100% 30.17 in 2.0 mi East 8.1 mph - 0.00 in   Overcast
12:53 AM 64.9 °F 64.0 °F 97% 30.18 in 3.0 mi East 8.1 mph - 0.00 in   Overcast
1:11 AM 64.4 °F 64.4 °F 100% 30.17 in 2.0 mi East 8.1 mph - N/A   Overcast
1:25 AM 64.4 °F 64.4 °F 100% 30.17 in 1.2 mi East 8.1 mph - N/A   Overcast
1:53 AM 64.9 °F 64.9 °F 100% 30.18 in 0.8 mi East 8.1 mph - N/A   Mist
2:49 AM 64.4 °F 64.4 °F 100% 30.18 in 0.2 mi East 9.2 mph - N/A Fog Fog
2:53 AM 64.9 °F 64.0 °F 97% 30.18 in 0.2 mi East 6.9 mph - N/A Fog Fog
3:01 AM 64.4 °F 64.4 °F 100% 30.18 in 0.5 mi East 9.2 mph - N/A Fog Fog
3:53 AM 64.9 °F 64.0 °F 97% 30.19 in 0.5 mi East 8.1 mph - N/A Fog Fog
4:53 AM 64.0 °F 64.0 °F 100% 30.20 in 0.8 mi East 3.5 mph - N/A   Mist
5:31 AM 64.4 °F 64.4 °F 100% 30.21 in 1.0 mi East 5.8 mph - 0.00 in Rain Light Rain
5:47 AM 64.4 °F 64.4 °F 100% 30.22 in 3.0 mi East 3.5 mph - 0.01 in   Overcast
5:53 AM 64.9 °F 64.0 °F 97% 30.22 in 5.0 mi SE 3.5 mph - 0.01 in   Overcast
6:53 AM 64.0 °F 63.0 °F 96% 30.25 in 0.8 mi NE 9.2 mph - N/A   Overcast
7:49 AM 64.4 °F 64.4 °F 100% 30.26 in 1.2 mi ENE 10.4 mph - N/A   Overcast
7:53 AM 64.9 °F 64.0 °F 97% 30.26 in 0.8 mi ENE 11.5 mph - N/A   Overcast
8:53 AM 66.0 °F 64.9 °F 96% 30.28 in 0.5 mi ENE 9.2 mph - N/A Fog Fog
9:15 AM 66.2 °F 66.2 °F 100% 30.28 in 0.2 mi East 8.1 mph - N/A Fog Fog
9:23 AM 66.2 °F 66.2 °F 100% 30.28 in 0.2 mi East 6.9 mph - N/A Fog Fog
9:53 AM 68.0 °F 66.9 °F 96% 30.29 in 0.5 mi East 6.9 mph - N/A Fog Fog
10:08 AM 68.0 °F 66.2 °F 94% 30.29 in 0.2 mi East 5.8 mph - N/A Fog Fog
10:25 AM 68.0 °F 66.2 °F 94% 30.29 in 0.5 mi East 5.8 mph - 0.00 in Fog , Rain Light Rain
10:37 AM 69.8 °F 68.0 °F 94% 30.28 in 1.5 mi East 5.8 mph - 0.01 in Rain Light Rain
10:53 AM 69.1 °F 68.0 °F 96% 30.28 in 1.2 mi East 5.8 mph - 0.01 in Rain Light Rain
11:53 AM 70.0 °F 68.0 °F 93% 30.29 in 2.0 mi East 3.5 mph - N/A   Overcast
12:00 PM 69.8 °F 68.0 °F 94% 30.29 in 3.0 mi East 3.5 mph - N/A   Overcast
12:41 PM 75.2 °F 69.8 °F 83% 30.28 in 6.0 mi SE 9.2 mph - N/A   Haze
12:53 PM 73.0 °F 70.0 °F 90% 30.29 in 6.0 mi SSE 5.8 mph - N/A   Mostly Cloudy
1:22 PM 73.4 °F 69.8 °F 88% 30.29 in 10.0 mi SE 8.1 mph - N/A   Scattered Clouds
1:53 PM 75.0 °F 70.0 °F 84% 30.30 in 10.0 mi SSE 3.5 mph - N/A   Scattered Clouds
2:53 PM 71.1 °F 68.0 °F 90% 30.30 in 10.0 mi ESE 3.5 mph - N/A   Overcast
3:00 PM 73.4 °F 69.8 °F 88% 30.30 in 10.0 mi Calm Calm - N/A   Overcast
3:53 PM 73.9 °F 71.1 °F 91% 30.29 in 10.0 mi SSE 6.9 mph - 0.00 in   Overcast
4:53 PM 75.9 °F 72.0 °F 87% 30.29 in 10.0 mi SSE 4.6 mph - N/A   Mostly Cloudy
5:17 PM 73.4 °F 71.6 °F 94% 30.29 in 10.0 mi SSE 5.8 mph - N/A   Mostly Cloudy
5:53 PM 73.0 °F 69.1 °F 87% 30.29 in 10.0 mi East 5.8 mph - N/A   Overcast
6:24 PM 69.8 °F 68.0 °F 94% 30.29 in 2.5 mi East 5.8 mph - N/A   Overcast
6:26 PM 69.8 °F 68.0 °F 94% 30.29 in 0.8 mi East 5.8 mph - N/A   Overcast
6:47 PM 68.0 °F 68.0 °F 100% 30.30 in 0.2 mi East 6.9 mph - N/A Fog Fog
6:48 PM 68.0 °F 68.0 °F 100% 30.30 in 0.2 mi East 6.9 mph - N/A Fog Fog
7:28 PM 68.0 °F 66.2 °F 94% 30.30 in 0.8 mi East 4.6 mph - N/A   Mist
7:53 PM 68.0 °F 66.9 °F 96% 30.30 in 0.8 mi ESE 6.9 mph - N/A   Mist
7:56 PM 68.0 °F 66.2 °F 94% 30.30 in 0.5 mi ESE 4.6 mph - N/A Fog Fog
8:53 PM 66.0 °F 66.0 °F 100% 30.30 in 0.5 mi ESE 4.6 mph - N/A Fog Fog
9:18 PM 66.2 °F 66.2 °F 100% 30.31 in 1.5 mi ESE 3.5 mph - N/A   Overcast
9:33 PM 66.2 °F 66.2 °F 100% 30.31 in 2.0 mi Calm Calm - N/A   Overcast
9:42 PM 66.2 °F 66.2 °F 100% 30.31 in 1.2 mi SE 3.5 mph - N/A   Overcast
9:53 PM 66.9 °F 66.0 °F 97% 30.31 in 1.8 mi SE 4.6 mph - N/A   Overcast
10:27 PM 68.0 °F 66.2 °F 94% 30.31 in 0.8 mi South 3.5 mph - N/A   Mist
10:39 PM 68.0 °F 66.2 °F 94% 30.31 in 0.2 mi SSW 3.5 mph - N/A Fog Fog
10:53 PM 68.0 °F 66.9 °F 96% 30.31 in 0.2 mi Calm Calm - N/A Fog Fog
11:53 PM 68.0 °F 68.0 °F 100% 30.31 in 0.2 mi Calm Calm - N/A Fog Fog